Content
SEND FEEDBACK

Daily
Averages
Monthly
Summary
United States of America

REDDING, CALIFORNIA


Home > North America > United States > California
Elevation: 535 feet     Latitude: 40 31N     Longitude: 122 18W

WEATHER
 
SELECT A DAY
Number of Records: 187,065;   Date Range: 1/1/95 - 7/7/14
 
SHARE

PRINT THIS DATA

[ ← Previous Day ]
WEATHER ALMANAC - FEBRUARY 17, 2013
[ Next Day → ]
[ °C ]   °F
Weather ElementAverageHighLow
Temperature52.6 °F66 °F (3:53 pm)37 °F (11:53 pm)
Dewpoint23.9 °F36 °F (1:53 am)12.9 °F (3:53 pm)
Humidity37.5 %73 % (1:53 am)13 % (3:53 pm)
Barometer30.01 in30.08 in (9:53 am)29.93 in (4:53 pm)
Wind Speed8.7 mph18.4 mph (9:53 am)
Wind Gust28.8 mph (9:53 am)
Weather ElementAverage
Visibility10 mi
Wind DirectionWSW (237.7 °)

Weather ElementTotal
Precipitation---
Heating Degree Days13.5 (Base 65)
Growing Degree Days1.5 (Base 50)
Averaged from 22 records on February 17, 2013
WEATHER CONDITIONS BREAKOUT
WIND DIRECTION BREAKOUT
WEATHER BY HOUR - FEBRUARY 17, 2013
[ °C ]   °F
Local TimeTemperatureDewpointHumidityBarometerVisibilityWind DirectionWind SpeedGust SpeedPrecipitationEventsConditions
1:53 AM44.1 °F36.0 °F73 %30.04 in10.0 miNNW (340°)4.6 mphClear
2:53 AM44.1 °F35.1 °F71 %30.04 in10.0 miNNW (340°)4.6 mphClear
3:53 AM46.0 °F33.1 °F61 %30.03 in10.0 miNNW (330°)4.6 mphClear
4:53 AM46.9 °F30.0 °F52 %30.04 in10.0 miVariable5.8 mphClear
5:53 AM48.9 °F27.0 °F43 %30.04 in10.0 miNNW (340°)10.4 mphClear
6:53 AM48.9 °F26.1 °F41 %30.04 in10.0 miNorth (350°)11.5 mph18.4 mphClear
7:53 AM50.0 °F25.0 °F38 %30.07 in10.0 miNorth (350°)13.8 mph20.7 mphClear
8:53 AM52.0 °F24.1 °F34 %30.07 in10.0 miNorth (360°)16.1 mph26.5 mphClear
9:53 AM54.0 °F23.0 °F30 %30.08 in10.0 miNorth (350°)18.4 mph28.8 mphClear
10:53 AM57.0 °F19.0 °F23 %30.07 in10.0 miNorth (350°)13.8 mph25.3 mphClear
11:53 AM60.1 °F18.0 °F20 %30.05 in10.0 miNNW (340°)13.8 mph21.9 mphClear
12:53 PM62.1 °F18.0 °F18 %30.01 in10.0 miNorth (350°)13.8 mphClear
1:53 PM64.0 °F17.1 °F16 %29.98 in10.0 miNorth (360°)11.5 mph18.4 mphClear
2:53 PM64.9 °F17.1 °F16 %29.95 in10.0 miNNE (30°)13.8 mphClear
3:53 PM66.0 °F12.9 °F13 %29.94 in10.0 miNorth (10°)11.5 mphClear
4:53 PM64.0 °F19.9 °F18 %29.93 in10.0 miNorth (10°)8.1 mphClear
5:53 PM55.9 °F23.0 °F28 %29.93 in10.0 miNW (320°)3.5 mphClear
6:53 PM55.4 °F21.2 °F26 %29.95 in10.0 miNorth (360°)3.5 mphClear
7:53 PM50.0 °F21.0 °F32 %29.96 in10.0 miNW (320°)5.8 mphClear
9:53 PM41.0 °F27.0 °F57 %29.97 in10.0 miCalmClear
10:53 PM44.1 °F26.1 °F49 %29.97 in10.0 miNNE (20°)3.5 mphClear
11:53 PM37.0 °F27.0 °F67 %29.97 in10.0 miCalmClear
Hourly data recorded from KRDD, located miles away from Redding, California







STORIES FROM OUR PARTNERS